Location: Bois de la Silve
(44.4667°N, 6.7833°E)
Time: 01:59:40
(UTC+00:00)

Lacrosse 5 - Visible Passes

Search period start: 21 October 2020 00:00
Search period end: 31 October 2020 00:00
Orbit: 716 x 723 km, 57.0° (Epoch: 20 October)

Date Brightness Start Highest point End Pass type
(mag) Time Alt. Az. Time Alt. Az. Time Alt. Az.
21 Oct 3.6 18:26:35 10° WNW 18:30:44 24° NNW 18:33:35 16° NNE visible
21 Oct 4.5 20:11:28 10° NW 20:12:47 15° NNW 20:12:47 15° NNW visible
22 Oct 3.3 17:32:40 10° W 17:37:12 31° NNW 17:41:44 10° NE visible
22 Oct 3.8 19:17:52 10° NW 19:21:31 20° N 19:21:31 20° N visible
23 Oct 3.8 18:24:02 10° WNW 18:27:51 21° N 18:30:15 15° NNE visible
23 Oct 4.5 20:08:21 10° NW 20:09:26 14° NNW 20:09:26 14° NNW visible
24 Oct 3.6 17:30:05 10° WNW 17:34:14 25° NNW 17:38:24 10° NE visible
24 Oct 3.8 19:14:58 10° NW 19:18:09 20° N 19:18:09 20° N visible
25 Oct 3.7 18:21:22 10° NW 18:25:01 20° N 18:26:51 16° NNE visible
25 Oct 4.5 20:05:04 10° NW 20:06:03 15° NNW 20:06:03 15° NNW visible
26 Oct 3.7 17:27:32 10° WNW 17:31:21 21° N 17:35:11 10° NE visible
26 Oct 3.7 19:11:52 10° NW 19:14:46 21° N 19:14:46 21° N visible
27 Oct 3.6 18:18:29 10° NW 18:22:12 20° N 18:23:29 18° NNE visible
27 Oct 4.5 20:01:41 10° NW 20:02:41 15° NW 20:02:41 15° NW visible
28 Oct 3.7 17:24:52 10° NW 17:28:32 20° N 17:32:12 10° NE visible
28 Oct 3.6 19:08:35 10° NW 19:11:25 24° N 19:11:25 24° N visible
29 Oct 3.3 18:15:22 10° NW 18:19:22 23° NNE 18:20:11 22° NNE visible
29 Oct 4.4 19:58:16 10° NW 19:59:23 16° NW 19:59:23 16° NW visible
30 Oct 3.6 17:21:59 10° NW 17:25:43 20° N 17:28:58 12° NE visible
30 Oct 3.3 19:05:12 10° NW 19:08:10 29° NNW 19:08:10 29° NNW visible
